Weather History for Augusta Bush, GA

Change the Weather History Date:

Monday, December 3, 2012

  Actual Average Record
Temperature  
Mean Temperature 61 °F 50 °F  
Max Temperature 76 °F 63 °F 82 °F (1982)
Min Temperature 45 °F 37 °F 13 °F (1960)
Degree Days  
Heating Degree Days 4 15  
Month to date heating degree days 15 45  
Since 1 July heating degree days 515 467  
Cooling Degree Days 0 0  
Month to date cooling degree days 0 0  
Year to date cooling degree days 2163 2086  
Growing Degree Days 10 (Base 50)    
Moisture  
Dew Point 51 °F    
Average Humidity 72    
Maximum Humidity 100    
Minimum Humidity 43    
Precipitation  
Precipitation 0.00 in 0.10 in 2.85 in (1927)
Month to date precipitation 0.00 0.31  
Year to date precipitation 31.41 40.49  
Sea Level Pressure  
Sea Level Pressure 30.30 in    
Wind  
Wind Speed 1 mph (SSW)    
Max Wind Speed 10 mph    
Max Gust Speed 14 mph    
Visibility 4 miles    
Events Fog    
T = Trace of Precipitation, MM = Missing Value Source: NWS Daily Summary

Daily Weather History Graph

Daily Weather History Graph

Search for Another Location

Airport:

Trip Planner

Search our weather history database for the weather conditions in past years. The results will help you decide how hot, cold, wet, or windy it might be!

Date:

Astronomy

Dec. 03, 2012 Rise Set
Actual Time 7:15 AM EST 5:19 PM EST
Civil Twilight 6:48 AM EST 5:47 PM EST
Nautical Twilight 6:17 AM EST 6:17 PM EST
Astronomical Twilight 5:47 AM EST 6:47 PM EST
Moon 9:57 PM EST (12/3) 10:45 AM EST (12/3)
Length of Visible Light 10h 58m
Length of Day
10h 04m
Waning Gibbous, 78% of the Moon is Illuminated
Dec 3
Waning Gibbous
Dec 6
Last Quarter
Dec 13
New
Dec 20
First Quarter
Dec 28
Full

Hourly Weather History & Observations

Time (EST) Temp. Dew Point Humidity Pressure Visibility Wind Dir Wind Speed Gust Speed Precip Events Conditions
12:19 AM 50.0 °F 48.2 °F 94% 30.29 in 2.0 mi Calm Calm - N/A   Partly Cloudy
12:26 AM 48.2 °F 48.2 °F 100% 30.29 in 1.2 mi Calm Calm - N/A   Scattered Clouds
12:36 AM 48.2 °F 48.2 °F 100% 30.30 in 8.0 mi Calm Calm - N/A   Partly Cloudy
12:53 AM 48.0 °F 46.9 °F 96% 30.30 in 5.0 mi Calm Calm - N/A   Partly Cloudy
1:53 AM 48.9 °F 46.9 °F 93% 30.29 in 5.0 mi Calm Calm - N/A   Mostly Cloudy
1:59 AM 48.2 °F 46.4 °F 93% 30.29 in 0.8 mi Calm Calm - N/A   Mist
2:09 AM 46.4 °F 44.6 °F 93% 30.30 in 0.2 mi Calm Calm - N/A Fog Fog
2:16 AM 46.4 °F 46.4 °F 100% 30.30 in 0.2 mi Calm Calm - N/A Fog Fog
2:40 AM 46.4 °F 46.4 °F 100% 30.30 in 0.5 mi Calm Calm - N/A Fog Fog
2:44 AM 46.4 °F 46.4 °F 100% 30.30 in 0.2 mi Calm Calm - N/A Fog Fog
2:53 AM 46.0 °F 46.0 °F 100% 30.30 in 0.2 mi Calm Calm - N/A Fog Fog
3:13 AM 46.4 °F 46.4 °F 100% 30.30 in 0.5 mi Calm Calm - N/A Fog Fog
3:36 AM 44.6 °F 44.6 °F 100% 30.31 in 0.2 mi Calm Calm - N/A Fog Fog
3:53 AM 46.0 °F 45.0 °F 96% 30.30 in 0.2 mi Calm Calm - N/A Fog Fog
4:04 AM 46.4 °F 46.4 °F 100% 30.30 in 0.5 mi Calm Calm - N/A Fog Fog
4:12 AM 48.2 °F 48.2 °F 100% 30.30 in 2.5 mi Calm Calm - N/A   Overcast
4:19 AM 48.2 °F 48.2 °F 100% 30.30 in 4.0 mi Calm Calm - N/A   Overcast
4:51 AM 50.0 °F 50.0 °F 100% 30.30 in 8.0 mi Calm Calm - N/A   Overcast
4:53 AM 50.0 °F 50.0 °F 100% 30.30 in 8.0 mi Calm Calm - N/A   Overcast
5:28 AM 51.8 °F 51.8 °F 100% 30.31 in 1.8 mi Calm Calm - N/A   Overcast
5:39 AM 51.8 °F 51.8 °F 100% 30.31 in 0.8 mi Calm Calm - N/A   Mist
5:53 AM 52.0 °F 52.0 °F 100% 30.31 in 0.2 mi Calm Calm - N/A Fog Fog
6:16 AM 53.6 °F 51.8 °F 94% 30.31 in 0.2 mi Calm Calm - N/A Fog Fog
6:53 AM 53.1 °F 53.1 °F 100% 30.32 in 0.2 mi Calm Calm - N/A Fog Fog
7:33 AM 53.6 °F 53.6 °F 100% 30.33 in 0.2 mi Calm Calm - N/A Fog Fog
7:53 AM 54.0 °F 54.0 °F 100% 30.33 in 0.2 mi Calm Calm - N/A Fog Fog
8:43 AM 55.4 °F 55.4 °F 100% 30.34 in 0.5 mi Calm Calm - N/A Fog Fog
8:53 AM 55.9 °F 55.9 °F 100% 30.34 in 1.2 mi South 3.5 mph - N/A   Overcast
9:01 AM 55.4 °F 55.4 °F 100% 30.34 in 0.5 mi South 4.6 mph - N/A Fog Fog
9:53 AM 57.2 °F 57.2 °F 100% 30.35 in 0.5 mi Calm Calm - N/A Fog Fog
10:13 AM 57.2 °F 57.2 °F 100% 30.35 in 1.5 mi Calm Calm - N/A   Overcast
10:20 AM 57.2 °F 57.2 °F 100% 30.34 in 3.0 mi Calm Calm - N/A   Overcast
10:51 AM 62.6 °F 57.2 °F 82% 30.34 in 6.0 mi Calm Calm - N/A   Haze
10:53 AM 63.0 °F 59.0 °F 87% 30.34 in 6.0 mi Calm Calm - N/A   Partly Cloudy
11:53 AM 69.1 °F 59.0 °F 70% 30.31 in 9.0 mi Calm Calm - N/A   Clear
12:53 PM 75.0 °F 57.0 °F 53% 30.27 in 10.0 mi South 5.8 mph - N/A   Partly Cloudy
1:53 PM 75.0 °F 53.1 °F 46% 30.25 in 10.0 mi South 4.6 mph - N/A   Partly Cloudy
2:53 PM 73.9 °F 51.1 °F 45% 30.25 in 10.0 mi SW 4.6 mph - N/A   Mostly Cloudy
3:53 PM 75.0 °F 51.1 °F 43% 30.24 in 10.0 mi SSW 8.1 mph - N/A   Mostly Cloudy
4:53 PM 70.0 °F 51.1 °F 51% 30.25 in 10.0 mi SW 3.5 mph - N/A   Clear
5:53 PM 62.1 °F 52.0 °F 70% 30.25 in 10.0 mi Calm Calm - N/A   Clear
6:53 PM 55.9 °F 51.1 °F 84% 30.27 in 10.0 mi Calm Calm - N/A   Clear
7:53 PM 53.1 °F 50.0 °F 89% 30.27 in 10.0 mi Calm Calm - N/A   Clear
8:53 PM 51.1 °F 50.0 °F 96% 30.28 in 10.0 mi Calm Calm - N/A   Clear
9:53 PM 50.0 °F 48.9 °F 96% 30.28 in 10.0 mi Calm Calm - N/A   Clear
10:53 PM 46.9 °F 46.9 °F 100% 30.29 in 1.2 mi Calm Calm - N/A   Clear
11:01 PM 48.2 °F 46.4 °F 93% 30.29 in 0.8 mi Calm Calm - N/A   Clear
11:05 PM 48.2 °F 46.4 °F 93% 30.29 in 2.0 mi Calm Calm - N/A   Clear
11:13 PM 48.2 °F 46.4 °F 93% 30.29 in 4.0 mi WNW 3.5 mph - N/A   Clear
11:53 PM 46.9 °F 46.0 °F 97% 30.29 in 10.0 mi Calm Calm - N/A   Clear